| time (UTC) | temp C | wind direction | speed KPH | gust KPH | rain 1hr cm | rain 24hr cm | rain mn cm | humidity % | barometer mb |
| 20260507091558 | 12 | 33 | 3.2 | 8.0 | 0.00 | 0.71 | 0.41 | 88 | |
| 20260507091358 | 12 | 354 | 4.8 | 8.0 | 0.00 | 0.71 | 0.41 | 88 | |
| 20260507091158 | 12 | 350 | 1.6 | 11.3 | 0.00 | 0.71 | 0.41 | 88 | |
| 20260507090959 | 12 | 350 | 1.6 | 11.3 | 0.00 | 0.71 | 0.41 | 88 | |
| 20260507090758 | 12 | 350 | 3.2 | 11.3 | 0.00 | 0.71 | 0.41 | 88 | |
| 20260507090557 | 12 | 354 | 3.2 | 11.3 | 0.00 | 0.71 | 0.41 | 88 | |
| 20260507090357 | 12 | 350 | 4.8 | 11.3 | 0.00 | 0.71 | 0.41 | 88 | |
| 20260507090157 | 12 | 39 | 3.2 | 6.4 | 0.00 | 0.71 | 0.41 | 88 | |
| 20260507085959 | 12 | 39 | 3.2 | 6.4 | 0.00 | 0.71 | 0.41 | 88 | |
| 20260507085558 | 12 | 359 | 1.6 | 4.8 | 0.00 | 0.71 | 0.41 | 88 | |
| 20260507085359 | 13 | 359 | 1.6 | 6.4 | 0.00 | 0.71 | 0.41 | 88 | |
| 20260507085158 | 13 | 359 | 3.2 | 9.7 | 0.00 | 0.71 | 0.41 | 88 | |
| 20260507084958 | 13 | 359 | 3.2 | 9.7 | 0.00 | 0.71 | 0.41 | 88 | |
| 20260507084557 | 13 | 359 | 4.8 | 9.7 | 0.00 | 0.71 | 0.41 | 87 | |
| 20260507084358 | 13 | 43 | 6.4 | 9.7 | 0.00 | 0.71 | 0.41 | 87 | |
| 20260507084158 | 13 | 359 | 3.2 | 9.7 | 0.00 | 0.71 | 0.41 | 87 | |
| 20260507084000 | 13 | 354 | 3.2 | 12.9 | 0.00 | 0.71 | 0.41 | 87 | |
| 20260507083759 | 13 | 16 | 4.8 | 12.9 | 0.00 | 0.71 | 0.41 | 88 | |
| 20260507083557 | 13 | 341 | 4.8 | 12.9 | 0.00 | 0.71 | 0.41 | 88 | |
| 20260507083358 | 13 | 4 | 4.8 | 12.9 | 0.00 | 0.71 | 0.41 | 87 | |
| 20260507082959 | 13 | 350 | 6.4 | 12.9 | 0.00 | 0.71 | 0.41 | 87 | |
| 20260507082758 | 13 | 359 | 6.4 | 12.9 | 0.00 | 0.71 | 0.41 | 88 | |
| 20260507082558 | 13 | 14 | 3.2 | 12.9 | 0.00 | 0.71 | 0.41 | 88 | |
| 20260507082359 | 13 | 11 | 8.0 | 12.9 | 0.00 | 0.71 | 0.41 | 88 | |
| 20260507082158 | 13 | 334 | 6.4 | 11.3 | 0.00 | 0.71 | 0.41 | 88 | |
| 20260507081959 | 13 | 10 | 3.2 | 9.7 | 0.00 | 0.71 | 0.41 | 88 | |
| 20260507081558 | 13 | 12 | 3.2 | 9.7 | 0.00 | 0.71 | 0.41 | 89 | |
| 20260507081357 | 13 | 344 | 4.8 | 9.7 | 0.00 | 0.71 | 0.41 | 89 | |
| 20260507081200 | 13 | 13 | 4.8 | 9.7 | 0.00 | 0.71 | 0.41 | 88 | |
| 20260507080759 | 13 | 350 | 3.2 | 9.7 | 0.00 | 0.71 | 0.41 | 88 | |
| 20260507080358 | 13 | 348 | 3.2 | 11.3 | 0.00 | 0.71 | 0.41 | 88 | |
| 20260507080159 | 13 | 346 | 6.4 | 11.3 | 0.00 | 0.71 | 0.41 | 88 | |
| 20260507080006 | 13 | 359 | 6.4 | 11.3 | 0.00 | 0.71 | 0.41 | 88 | |
| 20260507075758 | 13 | 4 | 6.4 | 11.3 | 0.00 | 0.71 | 0.41 | 88 | |
| 20260507075359 | 13 | 309 | 4.8 | 11.3 | 0.00 | 0.71 | 0.41 | 88 | |
| 20260507075159 | 13 | 345 | 4.8 | 11.3 | 0.00 | 0.71 | 0.41 | 88 | |
| 20260507074759 | 13 | 354 | 4.8 | 11.3 | 0.00 | 0.71 | 0.41 | 88 | |
| 20260507074559 | 13 | 43 | 6.4 | 11.3 | 0.00 | 0.71 | 0.41 | 88 | |
| 20260507074400 | 13 | 359 | 6.4 | 11.3 | 0.00 | 0.71 | 0.41 | 88 | |
| 20260507073800 | 13 | 342 | 4.8 | 14.5 | 0.00 | 0.71 | 0.41 | 88 | |
| 20260507073600 | 13 | 18 | 4.8 | 14.5 | 0.00 | 0.71 | 0.41 | 89 | |
| 20260507073400 | 13 | 4 | 8.0 | 14.5 | 0.00 | 0.71 | 0.41 | 88 | |
| 20260507073200 | 13 | 359 | 8.0 | 14.5 | 0.00 | 0.71 | 0.41 | 89 | |
| 20260507073004 | 13 | 341 | 6.4 | 20.9 | 0.00 | 0.71 | 0.41 | 88 | |
| 20260507072759 | 13 | 8 | 8.0 | 20.9 | 0.00 | 0.71 | 0.41 | 88 | |
| 20260507072401 | 13 | 347 | 11.3 | 20.9 | 0.00 | 0.71 | 0.41 | 88 | |
| 20260507072158 | 13 | 8 | 4.8 | 12.9 | 0.00 | 0.71 | 0.41 | 89 | |
| 20260507072005 | 13 | 4 | 6.4 | 12.9 | 0.00 | 0.71 | 0.41 | 89 | |
| 20260507071759 | 13 | 8 | 6.4 | 14.5 | 0.00 | 0.71 | 0.41 | 90 | |
| 20260507071559 | 13 | 333 | 6.4 | 14.5 | 0.00 | 0.71 | 0.41 | 90 | |
| 20260507071359 | 13 | 12 | 6.4 | 14.5 | 0.00 | 0.71 | 0.41 | 90 | |
| 20260507071159 | 13 | 18 | 8.0 | 14.5 | 0.00 | 0.71 | 0.41 | 90 | |
| 20260507071001 | 13 | 335 | 6.4 | 14.5 | 0.00 | 0.71 | 0.41 | 91 | |
| 20260507070759 | 13 | 345 | 8.0 | 14.5 | 0.00 | 0.71 | 0.41 | 91 | |
| 20260507070559 | 13 | 354 | 8.0 | 12.9 | 0.00 | 0.71 | 0.41 | 91 | |
| 20260507070359 | 13 | 308 | 6.4 | 9.7 | 0.00 | 0.71 | 0.41 | 92 | |
| 20260507070200 | 13 | 4 | 4.8 | 11.3 | 0.00 | 0.71 | 0.41 | 93 | |
| 20260507070000 | 13 | 8 | 4.8 | 11.3 | 0.00 | 0.71 | 0.41 | 93 | |
| 20260507065759 | 13 | 341 | 3.2 | 11.3 | 0.00 | 0.71 | 0.41 | 93 | |
| 20260507065559 | 13 | 332 | 3.2 | 11.3 | 0.00 | 0.71 | 0.41 | 93 | |
| 20260507065358 | 13 | 359 | 6.4 | 11.3 | 0.00 | 0.71 | 0.41 | 93 | |
| 20260507065200 | 13 | 349 | 3.2 | 12.9 | 0.00 | 0.71 | 0.41 | 93 | |
| 20260507065000 | 13 | 315 | 4.8 | 12.9 | 0.00 | 0.71 | 0.41 | 93 | |
| 20260507064758 | 14 | 35 | 4.8 | 14.5 | 0.00 | 0.71 | 0.41 | 93 | |
| 20260507064559 | 13 | 359 | 6.4 | 14.5 | 0.00 | 0.71 | 0.41 | 93 | |
| 20260507064200 | 14 | 359 | 6.4 | 14.5 | 0.00 | 0.71 | 0.41 | 92 | |
| 20260507064001 | 14 | 4 | 6.4 | 14.5 | 0.03 | 0.71 | 0.41 | 92 | |
| 20260507063759 | 14 | 328 | 8.0 | 12.9 | 0.03 | 0.71 | 0.41 | 92 | |
| 20260507063559 | 14 | 306 | 6.4 | 12.9 | 0.03 | 0.71 | 0.41 | 92 | |
| 20260507063400 | 14 | 354 | 8.0 | 14.5 | 0.05 | 0.71 | 0.41 | 92 | |
| 20260507063158 | 14 | 354 | 8.0 | 14.5 | 0.05 | 0.71 | 0.41 | 92 | |
| 20260507063005 | 14 | 8 | 6.4 | 14.5 | 0.08 | 0.71 | 0.41 | 92 | |
| 20260507062759 | 14 | 8 | 8.0 | 16.1 | 0.08 | 0.71 | 0.41 | 92 | |
| 20260507062359 | 14 | 359 | 8.0 | 16.1 | 0.13 | 0.71 | 0.41 | 91 | |
| 20260507062201 | 14 | 8 | 9.7 | 16.1 | 0.15 | 0.71 | 0.41 | 91 | |
| 20260507061800 | 14 | 359 | 9.7 | 16.1 | 0.18 | 0.71 | 0.41 | 91 | |
| 20260507061600 | 14 | 350 | 8.0 | 12.9 | 0.20 | 0.71 | 0.41 | 91 | |
| 20260507061200 | 15 | 8 | 6.4 | 14.5 | 0.25 | 0.71 | 0.41 | 91 | |
| 20260507061004 | 15 | 9 | 6.4 | 14.5 | 0.28 | 0.71 | 0.41 | 91 | |
| 20260507060759 | 15 | 10 | 4.8 | 14.5 | 0.30 | 0.71 | 0.41 | 90 | |
| 20260507060559 | 15 | 359 | 6.4 | 14.5 | 0.33 | 0.71 | 0.41 | 90 | |
| 20260507060358 | 15 | 359 | 9.7 | 14.5 | 0.33 | 0.71 | 0.41 | 89 | |
| 20260507060006 | 15 | 343 | 4.8 | 12.9 | 0.33 | 0.71 | 0.41 | 90 | |
| 20260507055800 | 15 | 354 | 8.0 | 12.9 | 0.36 | 0.71 | 0.41 | 89 | |
| 20260507055558 | 15 | 317 | 8.0 | 12.9 | 0.36 | 0.71 | 0.41 | 89 | |
| 20260507055359 | 15 | 303 | 8.0 | 12.9 | 0.36 | 0.71 | 0.41 | 89 | |
| 20260507055159 | 15 | 339 | 4.8 | 9.7 | 0.36 | 0.71 | 0.41 | 89 | |
| 20260507054800 | 15 | 4 | 4.8 | 9.7 | 0.38 | 0.71 | 0.41 | 88 | |
| 20260507054559 | 15 | 8 | 4.8 | 12.9 | 0.38 | 0.71 | 0.41 | 88 | |
| 20260507054359 | 15 | 354 | 4.8 | 12.9 | 0.41 | 0.71 | 0.41 | 88 | |
| 20260507054201 | 15 | 349 | 1.6 | 12.9 | 0.41 | 0.71 | 0.41 | 88 | |
| 20260507054003 | 15 | 359 | 8.0 | 16.1 | 0.38 | 0.69 | 0.38 | 87 | |
| 20260507053802 | 15 | 347 | 8.0 | 16.1 | 0.38 | 0.69 | 0.38 | 87 | |
| 20260507053559 | 16 | 18 | 6.4 | 16.1 | 0.38 | 0.69 | 0.38 | 87 | |
| 20260507053400 | 16 | 59 | 6.4 | 16.1 | 0.36 | 0.66 | 0.36 | 87 | |
| 20260507053159 | 16 | 341 | 9.7 | 16.1 | 0.36 | 0.66 | 0.36 | 87 | |
| 20260507053002 | 16 | 4 | 9.7 | 16.1 | 0.33 | 0.64 | 0.33 | 88 | |
| 20260507052758 | 16 | 20 | 6.4 | 12.9 | 0.30 | 0.61 | 0.30 | 89 | |
| 20260507052600 | 16 | 9 | 8.0 | 12.9 | 0.30 | 0.61 | 0.30 | 89 | |
| 20260507052358 | 16 | 354 | 6.4 | 9.7 | 0.28 | 0.58 | 0.28 | 89 | |
| 20260507052159 | 16 | 13 | 3.2 | 6.4 | 0.25 | 0.56 | 0.25 | 89 | |
| 20260507052000 | 16 | 359 | 0.0 | 6.4 | 0.23 | 0.53 | 0.23 | 89 | |
| 20260507051800 | 17 | 359 | 0.0 | 6.4 | 0.23 | 0.53 | 0.23 | 88 | |
| 20260507051558 | 17 | 354 | 1.6 | 9.7 | 0.18 | 0.48 | 0.18 | 88 | |
| 20260507051359 | 17 | 333 | 0.0 | 9.7 | 0.15 | 0.46 | 0.15 | 87 | |
| 20260507051003 | 17 | 350 | 1.6 | 9.7 | 0.13 | 0.43 | 0.13 | 86 | |
| 20260507050759 | 17 | 4 | 4.8 | 9.7 | 0.10 | 0.41 | 0.10 | 86 | |
| 20260507050559 | 17 | 324 | 3.2 | 8.0 | 0.08 | 0.38 | 0.08 | 86 | |
| 20260507050359 | 17 | 324 | 0.0 | 8.0 | 0.08 | 0.38 | 0.08 | 85 | |
| 20260507050006 | 17 | 4 | 1.6 | 8.0 | 0.05 | 0.36 | 0.05 | 85 | |
| 20260507045759 | 17 | 328 | 0.0 | 1.6 | 0.05 | 0.36 | 0.05 | 84 | |
| 20260507045600 | 17 | 328 | 0.0 | 3.2 | 0.05 | 0.36 | 0.05 | 84 | |
| 20260507045200 | 18 | 328 | 0.0 | 6.4 | 0.05 | 0.36 | 0.05 | 83 | |
| 20260507045000 | 18 | 328 | 0.0 | 6.4 | 0.03 | 0.33 | 0.03 | 83 | |
| 20260507044759 | 18 | 328 | 1.6 | 6.4 | 0.03 | 0.33 | 0.03 | 81 | |
| 20260507044600 | 18 | 314 | 0.0 | 6.4 | 0.03 | 0.33 | 0.03 | 81 | |
| 20260507044359 | 18 | 301 | 1.6 | 11.3 | 0.00 | 0.30 | 0.00 | 81 | |
| 20260507044200 | 18 | 270 | 0.0 | 11.3 | 0.00 | 0.30 | 0.00 | 81 | |
| 20260507044005 | 18 | 272 | 1.6 | 11.3 | 0.00 | 0.30 | 0.00 | 80 | |
| 20260507043359 | 18 | 274 | 1.6 | 9.7 | 0.00 | 0.30 | 0.00 | 79 | |
| 20260507043159 | 18 | 322 | 0.0 | 12.9 | 0.00 | 0.30 | 0.00 | 78 | |
| 20260507043005 | 18 | 322 | 0.0 | 12.9 | 0.00 | 0.30 | 0.00 | 78 | |
| 20260507042600 | 18 | 328 | 4.8 | 12.9 | 0.00 | 0.30 | 0.00 | 78 | |
| 20260507042359 | 18 | 348 | 3.2 | 9.7 | 0.00 | 0.30 | 0.00 | 78 | |
| 20260507042159 | 18 | 354 | 4.8 | 9.7 | 0.00 | 0.30 | 0.00 | 78 | |
| 20260507041359 | 18 | 313 | 1.6 | 9.7 | 0.00 | 0.30 | 0.00 | 78 | |
| 20260507041158 | 18 | 302 | 1.6 | 9.7 | 0.00 | 0.30 | 0.00 | 78 | |
| 20260507040959 | 18 | 305 | 3.2 | 9.7 | 0.00 | 0.30 | 0.00 | 78 | |
| 20260507040600 | 18 | 330 | 1.6 | 9.7 | 0.00 | 0.30 | 0.00 | 78 | |
| 20260507040359 | 18 | 349 | 4.8 | 9.7 | 0.00 | 0.30 | 0.00 | 79 | |
| 20260507040200 | 18 | 324 | 3.2 | 11.3 | 0.00 | 0.30 | 0.00 | 79 | |
| 20260507035558 | 18 | 348 | 6.4 | 12.9 | 0.00 | 0.30 | 0.30 | 80 | |
| 20260507035358 | 18 | 8 | 6.4 | 12.9 | 0.00 | 0.30 | 0.30 | 80 | |
| 20260507035159 | 18 | 311 | 6.4 | 11.3 | 0.00 | 0.30 | 0.30 | 80 | |
| 20260507034558 | 18 | 27 | 6.4 | 16.1 | 0.00 | 0.30 | 0.30 | 81 | |
| 20260507034359 | 18 | 317 | 8.0 | 16.1 | 0.00 | 0.30 | 0.30 | 81 | |
| 20260507034158 | 18 | 14 | 9.7 | 16.1 | 0.00 | 0.30 | 0.30 | 82 | |
| 20260507034001 | 19 | 8 | 9.7 | 16.1 | 0.00 | 0.30 | 0.30 | 83 | |
| 20260507033558 | 19 | 10 | 9.7 | 16.1 | 0.00 | 0.30 | 0.30 | 85 | |
| 20260507033358 | 19 | 359 | 6.4 | 11.3 | 0.00 | 0.30 | 0.30 | 86 | |
| 20260507033157 | 19 | 4 | 4.8 | 11.3 | 0.00 | 0.30 | 0.30 | 87 | |
| 20260507032959 | 19 | 359 | 4.8 | 11.3 | 0.00 | 0.30 | 0.30 | 87 | |
| 20260507032758 | 19 | 13 | 4.8 | 11.3 | 0.00 | 0.30 | 0.30 | 87 | |
| 20260507032557 | 19 | 316 | 4.8 | 8.0 | 0.00 | 0.30 | 0.30 | 88 | |
| 20260507032158 | 19 | 338 | 3.2 | 6.4 | 0.00 | 0.30 | 0.30 | 88 | |
| 20260507031959 | 19 | 316 | 3.2 | 6.4 | 0.00 | 0.30 | 0.30 | 88 | |
| 20260507031758 | 19 | 322 | 1.6 | 4.8 | 0.00 | 0.30 | 0.30 | 88 | |
| 20260507031557 | 19 | 319 | 0.0 | 3.2 | 0.00 | 0.30 | 0.30 | 88 | |
| 20260507031358 | 19 | 319 | 0.0 | 3.2 | 0.00 | 0.30 | 0.30 | 88 | |
| 20260507031158 | 19 | 319 | 0.0 | 3.2 | 0.00 | 0.30 | 0.30 | 88 | |
| 20260507030758 | 19 | 322 | 0.0 | 1.6 | 0.00 | 0.30 | 0.30 | 88 | |
| 20260507030358 | 19 | 322 | 0.0 | 3.2 | 0.00 | 0.30 | 0.30 | 88 | |
| 20260507030158 | 19 | 322 | 0.0 | 3.2 | 0.00 | 0.30 | 0.30 | 88 | |
| 20260507025800 | 19 | 332 | 0.0 | 11.3 | 0.00 | 0.30 | 0.30 | 88 | |
| 20260507025558 | 19 | 332 | 0.0 | 11.3 | 0.00 | 0.30 | 0.30 | 88 | |
| 20260507025359 | 19 | 332 | 0.0 | 11.3 | 0.00 | 0.30 | 0.30 | 88 | |
| 20260507025200 | 19 | 332 | 3.2 | 11.3 | 0.00 | 0.30 | 0.30 | 88 | |
| 20260507025001 | 19 | 287 | 1.6 | 6.4 | 0.00 | 0.30 | 0.30 | 89 | |
| 20260507024759 | 19 | 278 | 3.2 | 6.4 | 0.00 | 0.30 | 0.30 | 89 | |
| 20260507024559 | 19 | 242 | 0.0 | 0.0 | 0.00 | 0.30 | 0.30 | 88 | |
| 20260507024359 | 19 | 241 | 0.0 | 0.0 | 0.00 | 0.30 | 0.30 | 88 | |
| 20260507024159 | 19 | 242 | 0.0 | 0.0 | 0.00 | 0.30 | 0.30 | 88 | |
| 20260507024005 | 19 | 242 | 0.0 | 0.0 | 0.00 | 0.30 | 0.30 | 88 | |
| 20260507023559 | 19 | 242 | 0.0 | 0.0 | 0.00 | 0.30 | 0.30 | 88 | |
| 20260507023400 | 19 | 242 | 0.0 | 0.0 | 0.00 | 0.30 | 0.30 | 88 | |
| 20260507023005 | 19 | 241 | 0.0 | 0.0 | 0.00 | 0.30 | 0.30 | 88 | |
| 20260507022559 | 19 | 242 | 0.0 | 0.0 | 0.00 | 0.30 | 0.30 | 88 | |
| 20260507022358 | 19 | 242 | 0.0 | 0.0 | 0.00 | 0.30 | 0.30 | 88 | |
| 20260507021559 | 19 | 242 | 0.0 | 0.0 | 0.00 | 0.30 | 0.30 | 87 | |
| 20260507021359 | 19 | 242 | 0.0 | 0.0 | 0.00 | 0.30 | 0.30 | 87 | |
| 20260507021158 | 19 | 241 | 0.0 | 0.0 | 0.00 | 0.30 | 0.30 | 87 | |
| 20260507021004 | 19 | 242 | 0.0 | 0.0 | 0.00 | 0.30 | 0.30 | 86 | |
| 20260507020558 | 19 | 242 | 0.0 | 0.0 | 0.00 | 0.30 | 0.30 | 86 | |
| 20260507020359 | 19 | 242 | 0.0 | 0.0 | 0.00 | 0.30 | 0.30 | 86 | |
| 20260507020159 | 19 | 242 | 0.0 | 0.0 | 0.00 | 0.30 | 0.30 | 86 | |
| 20260507020005 | 19 | 241 | 0.0 | 0.0 | 0.00 | 0.30 | 0.30 | 86 | |
| 20260507015759 | 19 | 241 | 0.0 | 0.0 | 0.00 | 0.30 | 0.30 | 86 | |
| 20260507015559 | 19 | 242 | 0.0 | 0.0 | 0.00 | 0.30 | 0.30 | 86 | |
| 20260507015359 | 19 | 242 | 0.0 | 0.0 | 0.00 | 0.30 | 0.30 | 86 | |
| 20260507015159 | 19 | 241 | 0.0 | 0.0 | 0.00 | 0.30 | 0.30 | 85 | |
| 20260507014758 | 19 | 242 | 0.0 | 0.0 | 0.00 | 0.30 | 0.30 | 85 | |
| 20260507014558 | 19 | 242 | 0.0 | 0.0 | 0.00 | 0.30 | 0.30 | 85 | |
| 20260507014359 | 19 | 242 | 0.0 | 0.0 | 0.00 | 0.30 | 0.30 | 85 | |
| 20260507014158 | 20 | 242 | 0.0 | 0.0 | 0.00 | 0.30 | 0.30 | 85 | |
| 20260507014001 | 20 | 242 | 0.0 | 0.0 | 0.00 | 0.30 | 0.30 | 85 | |
| 20260507013558 | 20 | 242 | 0.0 | 0.0 | 0.00 | 0.30 | 0.30 | 86 | |
| 20260507013159 | 20 | 242 | 0.0 | 0.0 | 0.00 | 0.30 | 0.30 | 85 | |
| 20260507012959 | 20 | 241 | 0.0 | 0.0 | 0.00 | 0.30 | 0.30 | 85 | |
| 20260507012759 | 20 | 241 | 0.0 | 0.0 | 0.00 | 0.30 | 0.30 | 85 | |
| 20260507012559 | 20 | 242 | 0.0 | 0.0 | 0.00 | 0.30 | 0.30 | 85 | |
| 20260507012358 | 20 | 241 | 0.0 | 0.0 | 0.00 | 0.30 | 0.30 | 85 | |
| 20260507012000 | 20 | 242 | 0.0 | 0.0 | 0.00 | 0.30 | 0.30 | 85 | |
| 20260507011759 | 20 | 242 | 0.0 | 0.0 | 0.00 | 0.30 | 0.30 | 85 | |
| 20260507011558 | 20 | 242 | 0.0 | 0.0 | 0.00 | 0.30 | 0.30 | 85 | |
| 20260507011358 | 20 | 242 | 0.0 | 0.0 | 0.00 | 0.30 | 0.30 | 85 | |
| 20260507011200 | 20 | 242 | 0.0 | 0.0 | 0.00 | 0.30 | 0.30 | 84 | |
| 20260507011003 | 20 | 242 | 0.0 | 0.0 | 0.00 | 0.30 | 0.30 | 84 | |
| 20260507010800 | 20 | 242 | 0.0 | 0.0 | 0.00 | 0.30 | 0.30 | 84 | |
| 20260507010559 | 20 | 242 | 0.0 | 0.0 | 0.00 | 0.30 | 0.30 | 84 | |
| 20260507010359 | 20 | 241 | 0.0 | 0.0 | 0.00 | 0.30 | 0.30 | 84 | |
| 20260507010200 | 20 | 241 | 0.0 | 0.0 | 0.00 | 0.30 | 0.30 | 84 | |
| 20260507010000 | 20 | 241 | 0.0 | 0.0 | 0.00 | 0.30 | 0.30 | 84 | |
| 20260507005759 | 20 | 242 | 0.0 | 0.0 | 0.00 | 0.30 | 0.30 | 84 | |
| 20260507005358 | 20 | 241 | 0.0 | 0.0 | 0.00 | 0.30 | 0.30 | 84 | |
| 20260507005158 | 20 | 241 | 0.0 | 0.0 | 0.00 | 0.30 | 0.30 | 83 | |
| 20260507004758 | 20 | 241 | 0.0 | 0.0 | 0.00 | 0.30 | 0.30 | 83 | |
| 20260507004559 | 20 | 242 | 0.0 | 0.0 | 0.00 | 0.30 | 0.30 | 83 | |
| 20260507004357 | 20 | 242 | 0.0 | 0.0 | 0.00 | 0.30 | 0.30 | 83 | |
| 20260507004159 | 20 | 242 | 0.0 | 0.0 | 0.00 | 0.30 | 0.30 | 83 | |
| 20260507003959 | 20 | 241 | 0.0 | 0.0 | 0.00 | 0.30 | 0.30 | 82 | |
| 20260507003758 | 20 | 242 | 0.0 | 0.0 | 0.00 | 0.30 | 0.30 | 82 | |
| 20260507003559 | 20 | 242 | 0.0 | 0.0 | 0.00 | 0.30 | 0.30 | 82 | |
| 20260507003358 | 20 | 242 | 0.0 | 0.0 | 0.00 | 0.30 | 0.30 | 82 | |
| 20260507003158 | 20 | 242 | 0.0 | 0.0 | 0.00 | 0.30 | 0.30 | 82 | |
| 20260507002959 | 20 | 242 | 0.0 | 0.0 | 0.00 | 0.30 | 0.30 | 82 | |
| 20260507002358 | 20 | 242 | 0.0 | 1.6 | 0.00 | 0.30 | 0.30 | 81 | |
| 20260507002158 | 20 | 242 | 0.0 | 1.6 | 0.00 | 0.30 | 0.30 | 82 | |
| 20260507001758 | 20 | 242 | 0.0 | 1.6 | 0.00 | 0.30 | 0.30 | 82 | |
| 20260507001558 | 20 | 242 | 0.0 | 1.6 | 0.00 | 0.30 | 0.30 | 81 | |
| 20260507001358 | 20 | 242 | 0.0 | 0.0 | 0.00 | 0.30 | 0.30 | 81 | |
| 20260507001157 | 20 | 242 | 0.0 | 0.0 | 0.00 | 0.30 | 0.30 | 81 | |
| 20260507000759 | 20 | 242 | 0.0 | 0.0 | 0.00 | 0.30 | 0.30 | 81 | |
| 20260507000557 | 20 | 242 | 0.0 | 0.0 | 0.00 | 0.30 | 0.30 | 81 | |
| 20260507000358 | 20 | 242 | 0.0 | 0.0 | 0.00 | 0.30 | 0.30 | 81 | |
| 20260507000158 | 20 | 241 | 0.0 | 0.0 | 0.00 | 0.30 | 0.30 | 81 | |
| 20260507000003 | 20 | 242 | 0.0 | 1.6 | 0.00 | 0.30 | 0.30 | 80 | |
| 20260506235759 | 20 | 242 | 0.0 | 3.2 | 0.00 | 0.30 | 0.30 | 80 | |
| 20260506235559 | 20 | 241 | 0.0 | 3.2 | 0.00 | 0.30 | 0.30 | 80 | |
| 20260506235400 | 21 | 242 | 0.0 | 3.2 | 0.00 | 0.30 | 0.30 | 80 | |
| 20260506235159 | 21 | 242 | 0.0 | 3.2 | 0.00 | 0.30 | 0.30 | 80 | |
| 20260506235001 | 21 | 242 | 0.0 | 3.2 | 0.00 | 0.30 | 0.30 | 80 | |
| 20260506234800 | 21 | 241 | 1.6 | 3.2 | 0.00 | 0.30 | 0.30 | 79 | |
| 20260506234558 | 21 | 242 | 0.0 | 3.2 | 0.00 | 0.30 | 0.30 | 79 | |
| 20260506234159 | 21 | 242 | 1.6 | 6.4 | 0.00 | 0.30 | 0.30 | 79 | |
| 20260506234001 | 21 | 241 | 1.6 | 6.4 | 0.00 | 0.30 | 0.30 | 79 | |
| 20260506233758 | 21 | 240 | 3.2 | 6.4 | 0.00 | 0.30 | 0.30 | 79 | |
| 20260506233559 | 21 | 240 | 3.2 | 8.0 | 0.00 | 0.30 | 0.30 | 79 | |
| 20260506233359 | 21 | 237 | 1.6 | 8.0 | 0.00 | 0.30 | 0.30 | 79 | |
| 20260506233158 | 21 | 237 | 1.6 | 8.0 | 0.00 | 0.30 | 0.30 | 78 | |
| 20260506232959 | 21 | 237 | 3.2 | 8.0 | 0.00 | 0.30 | 0.30 | 78 | |
| 20260506232557 | 21 | 240 | 1.6 | 8.0 | 0.00 | 0.30 | 0.30 | 78 | |
| 20260506232157 | 21 | 241 | 0.0 | 6.4 | 0.00 | 0.30 | 0.30 | 78 | |
| 20260506231959 | 21 | 241 | 1.6 | 6.4 | 0.00 | 0.30 | 0.30 | 78 | |
| 20260506231600 | 21 | 241 | 0.0 | 6.4 | 0.00 | 0.30 | 0.30 | 79 | |
| 20260506231358 | 21 | 241 | 0.0 | 6.4 | 0.00 | 0.30 | 0.30 | 78 | |
| 20260506231157 | 21 | 241 | 3.2 | 8.0 | 0.00 | 0.30 | 0.30 | 78 | |
| 20260506231000 | 21 | 239 | 1.6 | 8.0 | 0.00 | 0.30 | 0.30 | 79 | |
| 20260506230759 | 21 | 237 | 3.2 | 9.7 | 0.00 | 0.30 | 0.30 | 77 | |
| 20260506230558 | 21 | 233 | 3.2 | 9.7 | 0.00 | 0.30 | 0.30 | 77 | |
| 20260506230358 | 21 | 231 | 3.2 | 9.7 | 0.00 | 0.30 | 0.30 | 77 | |
| 20260506230003 | 21 | 239 | 1.6 | 8.0 | 0.00 | 0.30 | 0.30 | 77 | |
| 20260506225759 | 21 | 239 | 3.2 | 8.0 | 0.00 | 0.30 | 0.30 | 77 | |
| 20260506225359 | 21 | 201 | 3.2 | 9.7 | 0.00 | 0.30 | 0.30 | 77 | |
| 20260506225159 | 21 | 237 | 3.2 | 12.9 | 0.00 | 0.30 | 0.30 | 76 | |
| 20260506225001 | 21 | 234 | 3.2 | 14.5 | 0.00 | 0.30 | 0.30 | 77 | |
| 20260506224759 | 21 | 235 | 3.2 | 14.5 | 0.00 | 0.30 | 0.30 | 77 | |
| 20260506224558 | 21 | 227 | 1.6 | 14.5 | 0.00 | 0.30 | 0.30 | 77 | |
| 20260506224359 | 21 | 228 | 4.8 | 14.5 | 0.00 | 0.30 | 0.30 | 76 | |
| 20260506224200 | 21 | 228 | 6.4 | 14.5 | 0.00 | 0.30 | 0.30 | 76 | |
| 20260506224000 | 22 | 240 | 4.8 | 14.5 | 0.00 | 0.30 | 0.30 | 76 | |
| 20260506223800 | 22 | 237 | 6.4 | 14.5 | 0.00 | 0.30 | 0.30 | 76 | |
| 20260506223558 | 22 | 235 | 4.8 | 14.5 | 0.00 | 0.30 | 0.30 | 76 | |
| 20260506223400 | 22 | 217 | 6.4 | 14.5 | 0.00 | 0.30 | 0.30 | 76 | |
| 20260506223159 | 22 | 230 | 3.2 | 9.7 | 0.00 | 0.30 | 0.30 | 76 | |
| 20260506222759 | 22 | 237 | 3.2 | 12.9 | 0.00 | 0.30 | 0.30 | 77 | |
| 20260506222558 | 22 | 234 | 0.0 | 12.9 | 0.00 | 0.30 | 0.30 | 76 | |
| 20260506222359 | 22 | 234 | 6.4 | 12.9 | 0.00 | 0.30 | 0.30 | 76 | |
| 20260506222159 | 22 | 250 | 6.4 | 12.9 | 0.00 | 0.30 | 0.30 | 75 | |
| 20260506222007 | 22 | 236 | 4.8 | 12.9 | 0.00 | 0.30 | 0.30 | 76 | |
| 20260506221758 | 22 | 231 | 1.6 | 12.9 | 0.00 | 0.30 | 0.30 | 75 | |
| 20260506221600 | 22 | 230 | 1.6 | 14.5 | 0.00 | 0.30 | 0.30 | 76 | |
| 20260506221359 | 22 | 247 | 1.6 | 14.5 | 0.00 | 0.30 | 0.30 | 76 | |
| 20260506221159 | 22 | 247 | 4.8 | 14.5 | 0.00 | 0.30 | 0.30 | 75 | |
| 20260506220959 | 22 | 242 | 6.4 | 14.5 | 0.00 | 0.30 | 0.30 | 75 | |
| 20260506220757 | 22 | 227 | 4.8 | 12.9 | 0.00 | 0.30 | 0.30 | 75 | |
| 20260506220558 | 22 | 236 | 4.8 | 14.5 | 0.00 | 0.30 | 0.30 | 75 | |
| 20260506220358 | 22 | 231 | 4.8 | 14.5 | 0.00 | 0.30 | 0.30 | 74 | |
| 20260506220159 | 22 | 258 | 4.8 | 14.5 | 0.00 | 0.30 | 0.30 | 74 | |
| 20260506220005 | 22 | 235 | 6.4 | 14.5 | 0.00 | 0.30 | 0.30 | 74 | |
| 20260506215758 | 22 | 237 | 4.8 | 11.3 | 0.00 | 0.30 | 0.30 | 75 | |
| 20260506215559 | 22 | 228 | 3.2 | 11.3 | 0.00 | 0.30 | 0.30 | 75 | |
| 20260506215359 | 22 | 234 | 6.4 | 16.1 | 0.00 | 0.30 | 0.30 | 74 | |
| 20260506215159 | 22 | 245 | 6.4 | 16.1 | 0.00 | 0.30 | 0.30 | 74 | |
| 20260506215000 | 22 | 235 | 4.8 | 16.1 | 0.00 | 0.30 | 0.30 | 74 | |
| 20260506214759 | 22 | 237 | 6.4 | 16.1 | 0.00 | 0.30 | 0.30 | 74 | |
| 20260506214559 | 22 | 228 | 4.8 | 16.1 | 0.00 | 0.30 | 0.30 | 75 | |
| 20260506214358 | 22 | 185 | 4.8 | 19.3 | 0.00 | 0.30 | 0.30 | 75 | |
| 20260506214159 | 22 | 218 | 4.8 | 19.3 | 0.00 | 0.30 | 0.30 | 75 | |
| 20260506213959 | 22 | 240 | 6.4 | 19.3 | 0.00 | 0.30 | 0.30 | 74 | |
| 20260506213758 | 22 | 231 | 4.8 | 19.3 | 0.00 | 0.30 | 0.30 | 75 | |
| 20260506213559 | 22 | 237 | 6.4 | 19.3 | 0.00 | 0.30 | 0.30 | 74 | |
| 20260506213159 | 22 | 236 | 4.8 | 11.3 | 0.00 | 0.30 | 0.30 | 74 | |
| 20260506212559 | 22 | 243 | 1.6 | 14.5 | 0.00 | 0.30 | 0.30 | 75 | |
| 20260506212358 | 22 | 241 | 4.8 | 14.5 | 0.00 | 0.30 | 0.30 | 75 | |
| 20260506212200 | 22 | 237 | 6.4 | 14.5 | 0.00 | 0.30 | 0.30 | 75 | |
| 20260506211758 | 22 | 245 | 6.4 | 19.3 | 0.00 | 0.30 | 0.30 | 75 | |
| 20260506211359 | 22 | 238 | 9.7 | 19.3 | 0.00 | 0.30 | 0.30 | 74 | |
| 20260506211158 | 22 | 247 | 4.8 | 19.3 | 0.00 | 0.30 | 0.30 | 74 | |
| 20260506211004 | 22 | 239 | 4.8 | 19.3 | 0.00 | 0.30 | 0.30 | 76 | |
| 20260506210759 | 22 | 229 | 6.4 | 12.9 | 0.00 | 0.30 | 0.30 | 74 | |
| 20260506210559 | 22 | 258 | 6.4 | 12.9 | 0.00 | 0.30 | 0.30 | 75 | |
| 20260506210200 | 22 | 243 | 6.4 | 12.9 | 0.00 | 0.30 | 0.30 | 75 | |
| 20260506205758 | 22 | 223 | 1.6 | 17.7 | 0.00 | 0.30 | 0.30 | 75 | |
| 20260506205400 | 22 | 208 | 4.8 | 17.7 | 0.00 | 0.30 | 0.30 | 75 | |
| 20260506205159 | 22 | 244 | 6.4 | 17.7 | 0.00 | 0.30 | 0.30 | 74 | |
| 20260506205000 | 22 | 207 | 9.7 | 17.7 | 0.00 | 0.30 | 0.30 | 74 | |
| 20260506204558 | 22 | 216 | 3.2 | 16.1 | 0.00 | 0.30 | 0.30 | 75 | |
| 20260506204359 | 22 | 204 | 8.0 | 16.1 | 0.00 | 0.30 | 0.30 | 75 | |
| 20260506204159 | 22 | 214 | 4.8 | 12.9 | 0.00 | 0.30 | 0.30 | 76 | |
| 20260506203800 | 22 | 239 | 3.2 | 12.9 | 0.00 | 0.30 | 0.30 | 77 | |
| 20260506203559 | 22 | 199 | 1.6 | 12.9 | 0.00 | 0.30 | 0.30 | 78 | |
| 20260506203400 | 22 | 242 | 4.8 | 17.7 | 0.00 | 0.30 | 0.30 | 76 | |
| 20260506203157 | 22 | 226 | 4.8 | 17.7 | 0.00 | 0.30 | 0.30 | 76 | |
| 20260506203000 | 22 | 251 | 6.4 | 17.7 | 0.00 | 0.30 | 0.30 | 76 | |
| 20260506202759 | 22 | 226 | 3.2 | 17.7 | 0.00 | 0.30 | 0.30 | 76 | |
| 20260506202558 | 22 | 223 | 4.8 | 17.7 | 0.00 | 0.30 | 0.30 | 76 | |
| 20260506202359 | 22 | 235 | 3.2 | 16.1 | 0.00 | 0.30 | 0.30 | 77 | |
| 20260506202200 | 22 | 239 | 4.8 | 16.1 | 0.00 | 0.30 | 0.30 | 77 | |
| 20260506202000 | 22 | 280 | 4.8 | 16.1 | 0.00 | 0.30 | 0.30 | 77 | |
| 20260506201600 | 22 | 232 | 6.4 | 16.1 | 0.00 | 0.30 | 0.30 | 76 | |
| 20260506201359 | 22 | 251 | 4.8 | 16.1 | 0.00 | 0.30 | 0.30 | 76 | |
| 20260506200959 | 22 | 239 | 6.4 | 14.5 | 0.00 | 0.30 | 0.30 | 76 | |
| 20260506200600 | 22 | 240 | 6.4 | 17.7 | 0.00 | 0.30 | 0.30 | 76 | |
| 20260506200358 | 22 | 226 | 6.4 | 17.7 | 0.00 | 0.30 | 0.30 | 77 | |
| 20260506200200 | 22 | 249 | 8.0 | 27.4 | 0.00 | 0.30 | 0.30 | 75 | |
| 20260506200005 | 22 | 228 | 8.0 | 27.4 | 0.00 | 0.30 | 0.30 | 75 | |
| 20260506195759 | 22 | 287 | 8.0 | 27.4 | 0.00 | 0.30 | 0.30 | 75 | |
| 20260506195359 | 22 | 260 | 6.4 | 19.3 | 0.00 | 0.30 | 0.30 | 76 | |
| 20260506195001 | 22 | 241 | 4.8 | 20.9 | 0.00 | 0.30 | 0.30 | 75 | |
| 20260506194600 | 22 | 204 | 9.7 | 20.9 | 0.00 | 0.30 | 0.30 | 75 | |
| 20260506194400 | 22 | 244 | 6.4 | 20.9 | 0.00 | 0.30 | 0.30 | 75 | |
| 20260506194000 | 22 | 163 | 6.4 | 17.7 | 0.00 | 0.30 | 0.30 | 76 | |
| 20260506193758 | 22 | 223 | 6.4 | 17.7 | 0.00 | 0.30 | 0.30 | 77 | |
| 20260506193558 | 22 | 237 | 6.4 | 17.7 | 0.00 | 0.30 | 0.30 | 77 | |
| 20260506193359 | 22 | 211 | 8.0 | 17.7 | 0.00 | 0.30 | 0.30 | 76 | |
| 20260506192800 | 22 | 221 | 6.4 | 16.1 | 0.00 | 0.30 | 0.30 | 77 | |
| 20260506192600 | 22 | 298 | 4.8 | 16.1 | 0.00 | 0.30 | 0.30 | 78 | |
| 20260506192358 | 21 | 246 | 4.8 | 16.1 | 0.00 | 0.30 | 0.30 | 77 | |
| 20260506192159 | 21 | 237 | 6.4 | 14.5 | 0.00 | 0.30 | 0.30 | 77 | |
| 20260506192006 | 21 | 239 | 8.0 | 14.5 | 0.00 | 0.30 | 0.30 | 77 | |
| 20260506191759 | 21 | 224 | 4.8 | 12.9 | 0.00 | 0.30 | 0.30 | 76 | |
| 20260506191559 | 21 | 226 | 3.2 | 14.5 | 0.00 | 0.30 | 0.30 | 77 | |
| 20260506191358 | 21 | 190 | 3.2 | 19.3 | 0.00 | 0.30 | 0.30 | 77 | |
| 20260506191159 | 21 | 233 | 4.8 | 19.3 | 0.00 | 0.30 | 0.30 | 78 | |
| 20260506191000 | 21 | 206 | 4.8 | 19.3 | 0.00 | 0.30 | 0.30 | 77 | |
| 20260506190758 | 21 | 240 | 9.7 | 19.3 | 0.00 | 0.30 | 0.30 | 76 | |
| 20260506190559 | 21 | 249 | 8.0 | 16.1 | 0.00 | 0.30 | 0.30 | 77 | |
| 20260506190159 | 21 | 221 | 1.6 | 11.3 | 0.00 | 0.30 | 0.30 | 78 | |
| 20260506190005 | 21 | 179 | 3.2 | 16.1 | 0.00 | 0.30 | 0.30 | 78 | |
| 20260506185759 | 21 | 228 | 3.2 | 16.1 | 0.00 | 0.30 | 0.30 | 78 | |
| 20260506185600 | 21 | 229 | 0.0 | 17.7 | 0.00 | 0.30 | 0.30 | 77 | |
| 20260506185359 | 21 | 239 | 4.8 | 17.7 | 0.00 | 0.30 | 0.30 | 77 | |
| 20260506185200 | 21 | 176 | 4.8 | 22.5 | 0.00 | 0.30 | 0.30 | 76 | |
| 20260506185005 | 21 | 231 | 8.0 | 22.5 | 0.00 | 0.30 | 0.30 | 76 | |
| 20260506184759 | 21 | 242 | 6.4 | 22.5 | 0.00 | 0.30 | 0.30 | 77 | |
| 20260506184600 | 21 | 197 | 4.8 | 22.5 | 0.00 | 0.30 | 0.30 | 77 | |
| 20260506184359 | 21 | 224 | 6.4 | 22.5 | 0.00 | 0.30 | 0.30 | 77 | |
| 20260506184159 | 21 | 179 | 6.4 | 16.1 | 0.00 | 0.30 | 0.30 | 77 | |
| 20260506184000 | 21 | 222 | 4.8 | 16.1 | 0.00 | 0.30 | 0.30 | 77 | |
| 20260506183800 | 21 | 178 | 6.4 | 16.1 | 0.00 | 0.30 | 0.30 | 76 | |
| 20260506183559 | 21 | 184 | 6.4 | 16.1 | 0.00 | 0.30 | 0.30 | 77 | |
| 20260506183359 | 21 | 243 | 8.0 | 16.1 | 0.00 | 0.30 | 0.30 | 77 | |
| 20260506183200 | 21 | 231 | 6.4 | 17.7 | 0.00 | 0.30 | 0.30 | 77 | |
| 20260506183003 | 21 | 241 | 4.8 | 17.7 | 0.00 | 0.30 | 0.30 | 78 | |
| 20260506182801 | 21 | 216 | 3.2 | 17.7 | 0.00 | 0.30 | 0.30 | 78 | |
| 20260506182559 | 21 | 186 | 6.4 | 22.5 | 0.00 | 0.30 | 0.30 | 78 | |
| 20260506182359 | 21 | 204 | 6.4 | 22.5 | 0.00 | 0.30 | 0.30 | 77 | |
| 20260506182200 | 21 | 189 | 8.0 | 22.5 | 0.00 | 0.30 | 0.30 | 78 | |
| 20260506182001 | 21 | 227 | 8.0 | 22.5 | 0.00 | 0.30 | 0.30 | 78 | |
| 20260506181759 | 21 | 216 | 8.0 | 16.1 | 0.00 | 0.30 | 0.30 | 79 | |
| 20260506181559 | 21 | 187 | 6.4 | 16.1 | 0.00 | 0.30 | 0.30 | 78 | |
| 20260506181158 | 21 | 191 | 6.4 | 27.4 | 0.00 | 0.30 | 0.30 | 79 | |
| 20260506180759 | 21 | 237 | 4.8 | 27.4 | 0.00 | 0.30 | 0.30 | 81 | |
| 20260506180600 | 21 | 247 | 8.0 | 27.4 | 0.00 | 0.30 | 0.30 | 80 | |
| 20260506180359 | 21 | 217 | 6.4 | 19.3 | 0.00 | 0.30 | 0.30 | 80 | |
| 20260506180159 | 21 | 279 | 6.4 | 19.3 | 0.00 | 0.30 | 0.30 | 81 | |
| 20260506180007 | 20 | 266 | 9.7 | 19.3 | 0.00 | 0.30 | 0.30 | 81 | |
| 20260506175559 | 20 | 203 | 9.7 | 17.7 | 0.00 | 0.30 | 0.30 | 81 | |
| 20260506175359 | 20 | 220 | 6.4 | 17.7 | 0.00 | 0.30 | 0.30 | 82 | |
| 20260506175159 | 20 | 162 | 8.0 | 16.1 | 0.00 | 0.30 | 0.30 | 81 | |
| 20260506174759 | 20 | 243 | 4.8 | 19.3 | 0.00 | 0.30 | 0.30 | 83 | |
| 20260506174558 | 20 | 239 | 6.4 | 19.3 | 0.00 | 0.30 | 0.30 | 82 | |
| 20260506174158 | 20 | 181 | 4.8 | 27.4 | 0.00 | 0.30 | 0.30 | 83 | |
| 20260506174003 | 20 | 181 | 4.8 | 27.4 | 0.00 | 0.30 | 0.30 | 83 | |
| 20260506173759 | 20 | 230 | 11.3 | 27.4 | 0.00 | 0.30 | 0.30 | 83 | |
| 20260506173359 | 20 | 195 | 6.4 | 20.9 | 0.00 | 0.30 | 0.30 | 83 | |
| 20260506173158 | 20 | 240 | 8.0 | 20.9 | 0.00 | 0.30 | 0.30 | 83 | |
| 20260506173000 | 20 | 230 | 8.0 | 20.9 | 0.00 | 0.30 | 0.30 | 83 | |
| 20260506172759 | 20 | 238 | 6.4 | 19.3 | 0.00 | 0.30 | 0.30 | 85 | |
| 20260506172359 | 20 | 237 | 8.0 | 19.3 | 0.00 | 0.30 | 0.30 | 84 | |
| 20260506172158 | 20 | 241 | 6.4 | 19.3 | 0.00 | 0.30 | 0.30 | 84 | |
| 20260506172000 | 20 | 246 | 6.4 | 19.3 | 0.00 | 0.30 | 0.30 | 85 | |
| 20260506171759 | 19 | 175 | 3.2 | 17.7 | 0.00 | 0.30 | 0.30 | 87 | |
| 20260506171559 | 19 | 231 | 3.2 | 22.5 | 0.00 | 0.30 | 0.30 | 86 | |
| 20260506171358 | 19 | 215 | 4.8 | 22.5 | 0.00 | 0.30 | 0.30 | 86 | |
| 20260506171159 | 19 | 210 | 6.4 | 22.5 | 0.00 | 0.30 | 0.30 | 85 | |
| 20260506171005 | 19 | 228 | 8.0 | 22.5 | 0.00 | 0.30 | 0.30 | 85 | |
| 20260506170359 | 19 | 285 | 4.8 | 17.7 | 0.00 | 0.30 | 0.30 | 87 | |
| 20260506170159 | 19 | 212 | 6.4 | 17.7 | 0.00 | 0.30 | 0.30 | 88 | |
| 20260506170000 | 18 | 247 | 8.0 | 17.7 | 0.00 | 0.30 | 0.30 | 89 | |
| 20260506165800 | 18 | 233 | 3.2 | 17.7 | 0.00 | 0.30 | 0.30 | 89 | |
| 20260506165558 | 18 | 236 | 6.4 | 17.7 | 0.00 | 0.30 | 0.30 | 89 | |
| 20260506165400 | 18 | 206 | 8.0 | 17.7 | 0.00 | 0.30 | 0.30 | 89 | |
| 20260506165000 | 18 | 233 | 4.8 | 16.1 | 0.00 | 0.30 | 0.30 | 90 | |
| 20260506164759 | 18 | 232 | 6.4 | 16.1 | 0.00 | 0.30 | 0.30 | 90 | |
| 20260506164558 | 18 | 272 | 3.2 | 19.3 | 0.00 | 0.30 | 0.30 | 90 | |
| 20260506164159 | 18 | 235 | 4.8 | 19.3 | 0.03 | 0.30 | 0.30 | 89 | |
| 20260506163959 | 18 | 194 | 8.0 | 19.3 | 0.03 | 0.30 | 0.30 | 89 | |
| 20260506163759 | 18 | 145 | 6.4 | 17.7 | 0.03 | 0.30 | 0.30 | 90 | |
| 20260506163559 | 18 | 214 | 4.8 | 17.7 | 0.03 | 0.30 | 0.30 | 90 | |
| 20260506163159 | 18 | 183 | 3.2 | 14.5 | 0.03 | 0.30 | 0.30 | 91 | |
| 20260506163000 | 18 | 170 | 3.2 | 17.7 | 0.05 | 0.30 | 0.30 | 91 | |
| 20260506162759 | 18 | 205 | 4.8 | 17.7 | 0.05 | 0.30 | 0.30 | 91 | |
| 20260506162558 | 18 | 258 | 3.2 | 19.3 | 0.05 | 0.30 | 0.30 | 92 | |
| 20260506162359 | 18 | 227 | 8.0 | 19.3 | 0.05 | 0.30 | 0.30 | 92 | |
| 20260506162159 | 18 | 212 | 4.8 | 19.3 | 0.05 | 0.30 | 0.30 | 93 | |
| 20260506162002 | 18 | 191 | 6.4 | 19.3 | 0.05 | 0.30 | 0.30 | 93 | |
| 20260506161759 | 18 | 207 | 6.4 | 19.3 | 0.05 | 0.30 | 0.30 | 94 | |
| 20260506161559 | 18 | 241 | 6.4 | 12.9 | 0.05 | 0.30 | 0.30 | 94 | |
| 20260506161400 | 17 | 182 | 6.4 | 12.9 | 0.05 | 0.30 | 0.30 | 94 | |
| 20260506161158 | 17 | 199 | 3.2 | 9.7 | 0.05 | 0.30 | 0.30 | 94 | |
| 20260506161000 | 17 | 256 | 4.8 | 9.7 | 0.05 | 0.30 | 0.30 | 94 | |
| 20260506160359 | 17 | 172 | 1.6 | 12.9 | 0.05 | 0.30 | 0.30 | 93 | |
| 20260506160159 | 17 | 205 | 1.6 | 12.9 | 0.05 | 0.30 | 0.30 | 93 | |
| 20260506155759 | 17 | 262 | 3.2 | 16.1 | 0.08 | 0.30 | 0.30 | 94 | |
| 20260506155600 | 17 | 160 | 4.8 | 16.1 | 0.08 | 0.30 | 0.30 | 93 | |
| 20260506155358 | 17 | 163 | 4.8 | 16.1 | 0.08 | 0.30 | 0.30 | 94 | |
| 20260506155000 | 17 | 187 | 3.2 | 12.9 | 0.10 | 0.30 | 0.30 | 93 | |
| 20260506154758 | 17 | 209 | 3.2 | 12.9 | 0.13 | 0.30 | 0.30 | 93 | |
| 20260506154600 | 17 | 231 | 3.2 | 14.5 | 0.13 | 0.30 | 0.30 | 93 | |
| 20260506154359 | 17 | 205 | 3.2 | 14.5 | 0.13 | 0.28 | 0.28 | 93 | |
| 20260506154159 | 17 | 246 | 3.2 | 14.5 | 0.13 | 0.28 | 0.28 | 92 | |
| 20260506154000 | 17 | 137 | 6.4 | 14.5 | 0.15 | 0.28 | 0.28 | 92 | |
| 20260506153559 | 17 | 185 | 1.6 | 9.7 | 0.18 | 0.28 | 0.28 | 92 | |
| 20260506153359 | 17 | 200 | 3.2 | 9.7 | 0.20 | 0.28 | 0.28 | 92 | |
| 20260506153159 | 17 | 189 | 1.6 | 9.7 | 0.20 | 0.28 | 0.28 | 92 | |
| 20260506152758 | 17 | 199 | 1.6 | 11.3 | 0.20 | 0.25 | 0.25 | 92 | |
| 20260506152158 | 17 | 236 | 3.2 | 11.3 | 0.20 | 0.25 | 0.25 | 93 | |
| 20260506151759 | 17 | 251 | 1.6 | 8.0 | 0.20 | 0.25 | 0.25 | 93 | |
| 20260506151559 | 17 | 222 | 0.0 | 6.4 | 0.20 | 0.25 | 0.25 | 93 | |
| 20260506151359 | 17 | 223 | 1.6 | 6.4 | 0.20 | 0.25 | 0.25 | 93 | |
| 20260506151200 | 17 | 209 | 1.6 | 6.4 | 0.20 | 0.25 | 0.25 | 93 | |
| 20260506151000 | 17 | 154 | 0.0 | 3.2 | 0.23 | 0.25 | 0.25 | 92 | |
| 20260506150800 | 17 | 154 | 0.0 | 3.2 | 0.23 | 0.25 | 0.25 | 92 | |
| 20260506150558 | 17 | 154 | 0.0 | 1.6 | 0.23 | 0.25 | 0.25 | 92 | |
| 20260506150359 | 17 | 154 | 0.0 | 3.2 | 0.23 | 0.25 | 0.25 | 92 | |
| 20260506145959 | 17 | 153 | 0.0 | 3.2 | 0.23 | 0.23 | 0.23 | 91 | |
| 20260506145800 | 17 | 147 | 1.6 | 3.2 | 0.23 | 0.23 | 0.23 | 91 | |
| 20260506145559 | 17 | 189 | 0.0 | 3.2 | 0.23 | 0.23 | 0.23 | 91 | |
| 20260506145358 | 17 | 189 | 0.0 | 4.8 | 0.23 | 0.23 | 0.23 | 90 | |
| 20260506145158 | 17 | 195 | 0.0 | 4.8 | 0.23 | 0.23 | 0.23 | 90 | |
| 20260506144959 | 17 | 206 | 0.0 | 4.8 | 0.20 | 0.20 | 0.20 | 90 | |
| 20260506144800 | 17 | 207 | 0.0 | 4.8 | 0.18 | 0.18 | 0.18 | 90 | |
| 20260506144001 | 17 | 207 | 0.0 | 4.8 | 0.13 | 0.13 | 0.13 | 88 | |
| 20260506143800 | 17 | 208 | 0.0 | 4.8 | 0.13 | 0.13 | 0.13 | 88 | |
| 20260506143558 | 17 | 218 | 0.0 | 4.8 | 0.10 | 0.10 | 0.10 | 87 | |
| 20260506143358 | 17 | 218 | 1.6 | 4.8 | 0.08 | 0.08 | 0.08 | 87 | |
| 20260506143200 | 17 | 167 | 1.6 | 6.4 | 0.08 | 0.08 | 0.08 | 87 | |
| 20260506143005 | 17 | 188 | 0.0 | 6.4 | 0.05 | 0.05 | 0.05 | 86 | |
| 20260506142758 | 17 | 188 | 0.0 | 9.7 | 0.05 | 0.05 | 0.05 | 86 | |
| 20260506142559 | 18 | 187 | 1.6 | 9.7 | 0.05 | 0.05 | 0.05 | 86 | |
| 20260506142359 | 18 | 187 | 1.6 | 9.7 | 0.05 | 0.05 | 0.05 | 85 | |
| 20260506142159 | 18 | 200 | 1.6 | 9.7 | 0.05 | 0.05 | 0.05 | 85 | |
| 20260506142006 | 18 | 203 | 3.2 | 11.3 | 0.05 | 0.05 | 0.05 | 85 | |
| 20260506141559 | 18 | 167 | 1.6 | 11.3 | 0.05 | 0.05 | 0.05 | 84 | |
| 20260506141358 | 18 | 184 | 3.2 | 12.9 | 0.05 | 0.05 | 0.05 | 83 | |
| 20260506141200 | 18 | 228 | 3.2 | 12.9 | 0.05 | 0.05 | 0.05 | 83 | |
| 20260506141005 | 18 | 233 | 3.2 | 12.9 | 0.03 | 0.03 | 0.03 | 82 | |
| 20260506140758 | 18 | 221 | 4.8 | 12.9 | 0.03 | 0.03 | 0.03 | 82 | |
| 20260506140558 | 18 | 206 | 4.8 | 12.9 | 0.03 | 0.03 | 0.03 | 82 | |
| 20260506140359 | 18 | 230 | 3.2 | 8.0 | 0.03 | 0.03 | 0.03 | 81 | |
| 20260506140200 | 18 | 234 | 1.6 | 11.3 | 0.03 | 0.03 | 0.03 | 80 | |
| 20260506140005 | 18 | 231 | 1.6 | 16.1 | 0.00 | 0.00 | 0.00 | 80 | |
| 20260506135759 | 19 | 237 | 1.6 | 20.9 | 0.00 | 0.00 | 0.00 | 79 | |
| 20260506135559 | 19 | 227 | 4.8 | 20.9 | 0.00 | 0.00 | 0.00 | 78 | |
| 20260506135359 | 19 | 239 | 3.2 | 20.9 | 0.00 | 0.00 | 0.00 | 78 | |
| 20260506135159 | 19 | 202 | 6.4 | 20.9 | 0.00 | 0.00 | 0.00 | 77 | |
| 20260506135001 | 19 | 228 | 3.2 | 9.7 | 0.00 | 0.00 | 0.00 | 77 | |
| 20260506134759 | 19 | 191 | 1.6 | 9.7 | 0.00 | 0.00 | 0.00 | 77 | |
| 20260506134559 | 19 | 191 | 1.6 | 9.7 | 0.00 | 0.00 | 0.00 | 77 | |
| 20260506134359 | 19 | 191 | 3.2 | 17.7 | 0.00 | 0.00 | 0.00 | 77 | |
| 20260506134158 | 19 | 256 | 1.6 | 17.7 | 0.00 | 0.00 | 0.00 | 76 | |
| 20260506134000 | 19 | 195 | 3.2 | 17.7 | 0.00 | 0.00 | 0.00 | 76 | |
| 20260506133759 | 19 | 233 | 1.6 | 17.7 | 0.00 | 0.00 | 0.00 | 76 | |
| 20260506133400 | 19 | 225 | 4.8 | 14.5 | 0.00 | 0.00 | 0.00 | 75 | |
| 20260506133158 | 19 | 216 | 3.2 | 14.5 | 0.00 | 0.00 | 0.00 | 75 | |
| 20260506133000 | 19 | 237 | 4.8 | 14.5 | 0.00 | 0.00 | 0.00 | 75 | |
| 20260506132759 | 19 | 190 | 4.8 | 14.5 | 0.00 | 0.00 | 0.00 | 75 | |
| 20260506132559 | 19 | 148 | 1.6 | 8.0 | 0.00 | 0.00 | 0.00 | 75 | |
| 20260506132359 | 19 | 195 | 1.6 | 8.0 | 0.00 | 0.00 | 0.00 | 75 | |
| 20260506132159 | 19 | 197 | 3.2 | 14.5 | 0.00 | 0.00 | 0.00 | 74 | |
| 20260506131759 | 19 | 231 | 1.6 | 14.5 | 0.00 | 0.00 | 0.00 | 74 | |
| 20260506131557 | 19 | 231 | 3.2 | 14.5 | 0.00 | 0.00 | 0.00 | 74 | |
| 20260506131359 | 19 | 202 | 4.8 | 14.5 | 0.00 | 0.00 | 0.00 | 75 | |
| 20260506131200 | 19 | 191 | 4.8 | 14.5 | 0.00 | 0.00 | 0.00 | 75 | |
| 20260506130759 | 19 | 195 | 3.2 | 11.3 | 0.00 | 0.00 | 0.00 | 75 | |
| 20260506130600 | 19 | 199 | 3.2 | 11.3 | 0.00 | 0.00 | 0.00 | 75 | |
| 20260506130359 | 19 | 177 | 1.6 | 11.3 | 0.00 | 0.00 | 0.00 | 74 | |
| 20260506130159 | 19 | 172 | 4.8 | 11.3 | 0.00 | 0.00 | 0.00 | 74 | |
| 20260506130006 | 19 | 233 | 3.2 | 9.7 | 0.00 | 0.00 | 0.00 | 74 | |
| 20260506125759 | 19 | 191 | 1.6 | 9.7 | 0.00 | 0.00 | 0.00 | 73 | |
| 20260506125600 | 19 | 183 | 3.2 | 9.7 | 0.00 | 0.00 | 0.00 | 74 | |
| 20260506125358 | 19 | 212 | 4.8 | 9.7 | 0.00 | 0.00 | 0.00 | 74 | |
| 20260506125159 | 19 | 207 | 1.6 | 9.7 | 0.00 | 0.00 | 0.00 | 74 | |
| 20260506124759 | 19 | 206 | 3.2 | 9.7 | 0.00 | 0.00 | 0.00 | 74 | |
| 20260506124558 | 19 | 171 | 4.8 | 9.7 | 0.00 | 0.00 | 0.00 | 73 | |
| 20260506124358 | 19 | 246 | 4.8 | 9.7 | 0.00 | 0.00 | 0.00 | 74 | |
| 20260506124159 | 19 | 171 | 1.6 | 9.7 | 0.00 | 0.00 | 0.00 | 74 | |
| 20260506124000 | 19 | 210 | 0.0 | 9.7 | 0.00 | 0.00 | 0.00 | 74 | |
| 20260506123759 | 19 | 209 | 4.8 | 9.7 | 0.00 | 0.00 | 0.00 | 74 | |
| 20260506123558 | 19 | 224 | 3.2 | 12.9 | 0.00 | 0.00 | 0.00 | 74 | |
| 20260506123400 | 19 | 206 | 3.2 | 12.9 | 0.00 | 0.00 | 0.00 | 75 | |
| 20260506123159 | 19 | 245 | 3.2 | 12.9 | 0.00 | 0.00 | 0.00 | 74 | |
| 20260506123001 | 19 | 236 | 4.8 | 12.9 | 0.00 | 0.00 | 0.00 | 74 | |
| 20260506122758 | 19 | 204 | 3.2 | 11.3 | 0.00 | 0.00 | 0.00 | 74 | |
| 20260506122558 | 19 | 201 | 3.2 | 11.3 | 0.00 | 0.00 | 0.00 | 74 | |
| 20260506122358 | 19 | 249 | 4.8 | 11.3 | 0.00 | 0.00 | 0.00 | 73 | |
| 20260506122200 | 19 | 194 | 4.8 | 11.3 | 0.00 | 0.00 | 0.00 | 73 | |
| 20260506122001 | 19 | 200 | 4.8 | 9.7 | 0.00 | 0.00 | 0.00 | 74 | |
| 20260506121759 | 19 | 199 | 3.2 | 17.7 | 0.00 | 0.00 | 0.00 | 74 | |
| 20260506121358 | 19 | 211 | 3.2 | 19.3 | 0.00 | 0.00 | 0.00 | 74 | |
| 20260506121200 | 19 | 225 | 3.2 | 19.3 | 0.00 | 0.00 | 0.00 | 74 | |
| 20260506121004 | 19 | 231 | 6.4 | 19.3 | 0.00 | 0.00 | 0.00 | 73 | |
| 20260506120758 | 19 | 182 | 4.8 | 19.3 | 0.00 | 0.00 | 0.00 | 73 | |
| 20260506120559 | 19 | 231 | 4.8 | 19.3 | 0.00 | 0.00 | 0.00 | 74 | |
| 20260506120358 | 19 | 156 | 4.8 | 14.5 | 0.00 | 0.00 | 0.00 | 74 | |
| 20260506120159 | 19 | 224 | 3.2 | 14.5 | 0.00 | 0.00 | 0.00 | 74 | |
| 20260506120005 | 19 | 180 | 4.8 | 14.5 | 0.00 | 0.00 | 0.00 | 74 | |
| 20260506115759 | 19 | 201 | 4.8 | 14.5 | 0.00 | 0.00 | 0.00 | 74 | |
| 20260506115558 | 19 | 226 | 4.8 | 14.5 | 0.00 | 0.00 | 0.00 | 74 | |
| 20260506115358 | 19 | 177 | 4.8 | 14.5 | 0.00 | 0.00 | 0.00 | 74 | |
| 20260506115159 | 19 | 221 | 6.4 | 11.3 | 0.00 | 0.00 | 0.00 | 74 | |
| 20260506115000 | 19 | 155 | 6.4 | 11.3 | 0.00 | 0.00 | 0.00 | 74 | |
| 20260506114759 | 19 | 152 | 4.8 | 11.3 | 0.00 | 0.00 | 0.00 | 74 | |
| 20260506114559 | 19 | 165 | 4.8 | 11.3 | 0.00 | 0.00 | 0.00 | 75 | |
| 20260506114400 | 19 | 199 | 3.2 | 11.3 | 0.00 | 0.00 | 0.00 | 75 | |
| 20260506114200 | 19 | 198 | 4.8 | 11.3 | 0.00 | 0.00 | 0.00 | 75 | |
| 20260506114000 | 19 | 137 | 6.4 | 11.3 | 0.00 | 0.00 | 0.00 | 75 | |
| 20260506113600 | 19 | 181 | 3.2 | 12.9 | 0.00 | 0.00 | 0.00 | 75 | |
| 20260506113157 | 19 | 190 | 3.2 | 8.0 | 0.00 | 0.00 | 0.00 | 75 | |
| 20260506113000 | 19 | 175 | 3.2 | 8.0 | 0.00 | 0.00 | 0.00 | 76 | |
| 20260506112801 | 19 | 228 | 4.8 | 8.0 | 0.00 | 0.00 | 0.00 | 76 | |
| 20260506112600 | 18 | 204 | 3.2 | 12.9 | 0.00 | 0.00 | 0.00 | 76 | |
| 20260506112200 | 18 | 189 | 3.2 | 12.9 | 0.00 | 0.00 | 0.00 | 76 | |
| 20260506112004 | 18 | 149 | 4.8 | 12.9 | 0.00 | 0.00 | 0.00 | 76 | |
| 20260506111800 | 18 | 222 | 4.8 | 12.9 | 0.00 | 0.00 | 0.00 | 77 | |
| 20260506111600 | 18 | 186 | 3.2 | 9.7 | 0.00 | 0.00 | 0.00 | 77 | |
| 20260506111400 | 18 | 173 | 3.2 | 9.7 | 0.00 | 0.00 | 0.00 | 77 | |
| 20260506111200 | 18 | 193 | 3.2 | 9.7 | 0.00 | 0.00 | 0.00 | 77 | |
| 20260506111004 | 18 | 201 | 3.2 | 9.7 | 0.00 | 0.00 | 0.00 | 77 | |
| 20260506110800 | 18 | 184 | 4.8 | 9.7 | 0.00 | 0.00 | 0.00 | 77 | |
| 20260506110600 | 18 | 156 | 3.2 | 9.7 | 0.00 | 0.00 | 0.00 | 77 | |
| 20260506110400 | 18 | 205 | 3.2 | 9.7 | 0.00 | 0.00 | 0.00 | 77 | |
| 20260506110200 | 18 | 193 | 3.2 | 11.3 | 0.00 | 0.00 | 0.00 | 77 | |
| 20260506110001 | 18 | 178 | 3.2 | 11.3 | 0.00 | 0.00 | 0.00 | 77 | |
| 20260506105758 | 18 | 157 | 3.2 | 11.3 | 0.00 | 0.00 | 0.00 | 77 | |
| 20260506105558 | 18 | 129 | 4.8 | 25.7 | 0.00 | 0.00 | 0.00 | 77 | |
| 20260506105359 | 18 | 260 | 3.2 | 25.7 | 0.00 | 0.00 | 0.00 | 77 | |
| 20260506105157 | 18 | 214 | 4.8 | 25.7 | 0.00 | 0.00 | 0.00 | 77 | |
| 20260506104959 | 18 | 228 | 6.4 | 25.7 | 0.00 | 0.00 | 0.00 | 77 | |
| 20260506104758 | 18 | 235 | 4.8 | 11.3 | 0.00 | 0.00 | 0.00 | 77 | |
| 20260506104600 | 18 | 179 | 4.8 | 11.3 | 0.00 | 0.00 | 0.00 | 77 | |
| 20260506104400 | 18 | 229 | 3.2 | 11.3 | 0.00 | 0.00 | 0.00 | 78 | |
| 20260506104159 | 18 | 179 | 4.8 | 11.3 | 0.00 | 0.00 | 0.00 | 77 | |
| 20260506103358 | 18 | 234 | 4.8 | 9.7 | 0.00 | 0.00 | 0.00 | 78 | |
| 20260506103158 | 18 | 189 | 3.2 | 8.0 | 0.00 | 0.00 | 0.00 | 78 | |
| 20260506102959 | 18 | 174 | 1.6 | 8.0 | 0.00 | 0.00 | 0.00 | 78 | |
| 20260506102758 | 18 | 165 | 1.6 | 9.7 | 0.00 | 0.00 | 0.00 | 78 | |
| 20260506102559 | 18 | 162 | 4.8 | 9.7 | 0.00 | 0.00 | 0.00 | 78 | |
| 20260506102359 | 18 | 152 | 1.6 | 9.7 | 0.00 | 0.00 | 0.00 | 78 | |
| 20260506102158 | 18 | 183 | 3.2 | 9.7 | 0.00 | 0.00 | 0.00 | 78 | |
| 20260506102000 | 18 | 181 | 3.2 | 8.0 | 0.00 | 0.00 | 0.00 | 78 | |
| 20260506101758 | 18 | 160 | 3.2 | 8.0 | 0.00 | 0.00 | 0.00 | 78 | |
| 20260506101558 | 18 | 170 | 1.6 | 12.9 | 0.00 | 0.00 | 0.00 | 78 | |
| 20260506101200 | 18 | 157 | 1.6 | 14.5 | 0.00 | 0.00 | 0.00 | 77 | |
| 20260506101000 | 18 | 153 | 4.8 | 14.5 | 0.00 | 0.00 | 0.00 | 77 | |
| 20260506100558 | 18 | 158 | 1.6 | 14.5 | 0.00 | 0.00 | 0.00 | 77 | |
| 20260506100158 | 18 | 183 | 1.6 | 8.0 | 0.00 | 0.00 | 0.00 | 77 | |
| 20260506100006 | 18 | 154 | 3.2 | 11.3 | 0.00 | 0.00 | 0.00 | 77 | |
| 20260506095800 | 18 | 168 | 3.2 | 11.3 | 0.00 | 0.00 | 0.00 | 77 | |
| 20260506095600 | 18 | 148 | 4.8 | 11.3 | 0.00 | 0.00 | 0.00 | 77 | |
| 20260506095400 | 18 | 165 | 3.2 | 11.3 | 0.00 | 0.00 | 0.00 | 77 | |
| 20260506095200 | 18 | 215 | 3.2 | 11.3 | 0.00 | 0.00 | 0.00 | 77 | |
| 20260506094601 | 18 | 163 | 3.2 | 9.7 | 0.00 | 0.00 | 0.00 | 77 | |
| 20260506094400 | 18 | 154 | 1.6 | 8.0 | 0.00 | 0.00 | 0.00 | 77 | |
| 20260506094159 | 18 | 168 | 3.2 | 8.0 | 0.00 | 0.00 | 0.00 | 77 | |
| 20260506094005 | 18 | 166 | 3.2 | 8.0 | 0.00 | 0.00 | 0.00 | 77 | |
| 20260506093800 | 18 | 186 | 3.2 | 9.7 | 0.00 | 0.00 | 0.00 | 77 | |
| 20260506093600 | 18 | 151 | 1.6 | 9.7 | 0.00 | 0.00 | 0.00 | 76 | |
| 20260506093400 | 18 | 149 | 1.6 | 9.7 | 0.00 | 0.00 | 0.00 | 76 | |
| 20260506093005 | 18 | 174 | 1.6 | 9.7 | 0.00 | 0.00 | 0.00 | 76 | |
| 20260506092800 | 18 | 223 | 3.2 | 9.7 | 0.00 | 0.00 | 0.00 | 76 | |
| 20260506092559 | 18 | 230 | 3.2 | 8.0 | 0.00 | 0.00 | 0.00 | 76 | |
| 20260506092359 | 18 | 171 | 4.8 | 8.0 | 0.00 | 0.00 | 0.00 | 76 | |
| 20260506092200 | 18 | 180 | 3.2 | 9.7 | 0.00 | 0.00 | 0.00 | 76 | |
| 20260506092005 | 18 | 241 | 1.6 | 9.7 | 0.00 | 0.00 | 0.00 | 76 |